Milwaukee, WI

1:39 AM CDT on September 26, 2017 (GMT -0500)
Gen Mitchell International

Weather History for KMKE - January, 2012

Change the Weather History Date:

Sunday, January 29, 2012

  Actual Average Record
Temperature  
Mean Temperature 24 °F 22 °F  
Max Temperature 30 °F 29 °F 60 °F (2013)
Min Temperature 17 °F 16 °F -23 °F (1966)
Degree Days  
Heating Degree Days 41 43  
Month to date heating degree days 1075 1242  
Since 1 July heating degree days 3227 3802  
Cooling Degree Days 0 0  
Month to date cooling degree days 0 0  
Year to date cooling degree days 0 0  
Moisture  
Dew Point 17 °F    
Average Humidity 71    
Maximum Humidity 92    
Minimum Humidity 50    
Precipitation  
Precipitation 0.07 in 0.06 in 1.67 in (2013)
Month to date precipitation 1.37 1.65  
Year to date precipitation 1.37 1.65  
Snow  
Snow 1.70 in 0.50 in 9.60 in (1947)
Month to date snowfall 14.3 13.8  
Since 1 July snowfall 15.5 27.1  
Snow Depth 1.00 in    
Sea Level Pressure  
Sea Level Pressure 30.03 in    
Wind  
Wind Speed 9 mph (WNW)    
Max Wind Speed 22 mph    
Max Gust Speed 29 mph    
Visibility 6 miles    
Events Fog , Snow    
T = Trace of Precipitation, MM = Missing Value Source: NWS Daily Summary

Daily Weather History Graph

Daily Weather History Graph

Search for Another Location

Airport or City:

Trip Planner

Search our weather history database for the weather conditions in past years. The results will help you decide how hot, cold, wet, or windy it might be!

Date:

Astronomy

Jan. 29, 2012 Rise Set
Actual Time 7:10 AM CST 4:59 PM CST
Civil Twilight 6:39 AM CST 5:30 PM CST
Nautical Twilight 6:05 AM CST 6:04 PM CST
Astronomical Twilight 5:32 AM CST 6:37 PM CST
Moon 9:49 AM CST (1/29) 11:57 PM CST (1/29)
Length of Visible Light 10h 50m
Length of Day
9h 49m
Waxing Crescent, 37% of the Moon is Illuminated
Jan 29
Waxing Crescent
Jan 30
First Quarter
Feb 7
Full
Feb 14
Last Quarter
Feb 21
New

Hourly Weather History & Observations

Time (CST) Temp. Windchill Dew Point Humidity Pressure Visibility Wind Dir Wind Speed Gust Speed Precip Events Conditions
12:52 AM 28.9 °F 21.9 °F 19.0 °F 67% 29.99 in 10.0 mi West 6.9 mph - N/A   Clear
1:52 AM 26.1 °F 18.4 °F 21.0 °F 81% 30.00 in 10.0 mi SW 6.9 mph - N/A   Partly Cloudy
2:52 AM 25.0 °F 20.7 °F 21.0 °F 85% 29.98 in 10.0 mi SW 3.5 mph - N/A   Partly Cloudy
3:52 AM 25.0 °F 20.7 °F 21.0 °F 85% 29.96 in 10.0 mi South 3.5 mph - N/A   Mostly Cloudy
4:20 AM 24.8 °F 17.9 °F 21.2 °F 86% 29.93 in 1.8 mi SW 5.8 mph - 0.00 in Snow Light Snow
4:32 AM 24.8 °F 17.9 °F 21.2 °F 86% 29.93 in 2.5 mi WSW 5.8 mph - 0.00 in Snow Light Snow
4:52 AM 25.0 °F 18.1 °F 21.9 °F 88% 29.96 in 1.5 mi SW 5.8 mph - 0.01 in Snow Light Snow
5:00 AM 24.8 °F 17.9 °F 21.2 °F 86% 29.92 in 1.0 mi SW 5.8 mph - 0.00 in Snow Light Snow
5:33 AM 24.8 °F - 23.0 °F 93% 29.91 in 0.8 mi Calm Calm - 0.02 in Snow Light Snow
5:41 AM 24.8 °F - 23.0 °F 93% 29.90 in 1.0 mi Calm Calm - 0.02 in Snow Light Snow
5:52 AM 25.0 °F - 23.0 °F 92% 29.93 in 1.0 mi Calm Calm - 0.02 in Snow Light Snow
6:06 AM 26.6 °F 21.2 °F 23.0 °F 86% 29.90 in 1.5 mi Variable 4.6 mph - 0.01 in Snow Light Snow
6:13 AM 26.6 °F - 23.0 °F 86% 29.90 in 1.2 mi Calm Calm - 0.01 in Snow Light Snow
6:23 AM 26.6 °F 22.6 °F 23.0 °F 86% 29.90 in 0.8 mi NNW 3.5 mph - 0.01 in Snow Light Snow
6:52 AM 30.0 °F 22.4 °F 25.0 °F 82% 29.94 in 0.8 mi West 8.1 mph - 0.02 in Snow Light Snow
7:11 AM 26.6 °F 20.0 °F 23.0 °F 86% 29.92 in 1.0 mi NW 5.8 mph - 0.01 in Snow Light Snow
7:16 AM 26.6 °F 18.2 °F 23.0 °F 86% 29.92 in 0.5 mi NW 8.1 mph - 0.01 in Fog , Snow Snow
7:34 AM 26.6 °F 15.7 °F 21.2 °F 80% 29.93 in 1.0 mi NNW 12.7 mph - 0.01 in Snow Light Snow
7:47 AM 24.8 °F 13.4 °F 19.4 °F 80% 29.94 in 1.0 mi NNW 12.7 mph - 0.01 in Snow Light Snow
7:52 AM 24.1 °F 13.1 °F 19.9 °F 84% 29.98 in 0.8 mi NNW 11.5 mph - 0.01 in Snow Light Snow
7:58 AM 24.8 °F 15.3 °F 19.4 °F 80% 29.95 in 1.0 mi NNW 9.2 mph - 0.00 in Snow Light Snow
8:23 AM 24.8 °F 15.3 °F 19.4 °F 80% 29.96 in 1.5 mi NNW 9.2 mph - 0.01 in Snow Light Snow
8:33 AM 24.8 °F 12.9 °F 19.4 °F 80% 29.96 in 3.0 mi NW 13.8 mph - 0.01 in Snow Light Snow
8:52 AM 24.1 °F 12.0 °F 18.0 °F 77% 30.01 in 9.0 mi NW 13.8 mph - 0.01 in   Mostly Cloudy
9:52 AM 24.1 °F 11.0 °F 14.0 °F 65% 30.04 in 10.0 mi NW 16.1 mph 24.2 mph N/A   Scattered Clouds
10:52 AM 25.0 °F 12.6 °F 12.0 °F 58% 30.07 in 10.0 mi NW 15.0 mph 23.0 mph N/A   Partly Cloudy
11:52 AM 26.1 °F 12.7 °F 12.0 °F 55% 30.08 in 10.0 mi WNW 18.4 mph 25.3 mph N/A   Partly Cloudy
12:52 PM 25.0 °F 11.3 °F 12.0 °F 58% 30.11 in 10.0 mi West 18.4 mph 25.3 mph N/A   Partly Cloudy
1:52 PM 27.0 °F 17.3 °F 12.9 °F 56% 30.11 in 10.0 mi WNW 10.4 mph - N/A   Partly Cloudy
2:52 PM 27.0 °F 14.7 °F 12.0 °F 53% 30.13 in 10.0 mi West 16.1 mph 21.9 mph N/A   Partly Cloudy
3:52 PM 27.0 °F 15.6 °F 10.0 °F 49% 30.16 in 10.0 mi West 13.8 mph 21.9 mph N/A   Partly Cloudy
4:52 PM 26.1 °F 14.0 °F 10.0 °F 51% 30.19 in 10.0 mi West 15.0 mph 20.7 mph N/A   Scattered Clouds
5:52 PM 24.1 °F 17.0 °F 10.0 °F 55% 30.19 in 10.0 mi West 5.8 mph - N/A   Partly Cloudy
6:52 PM 23.0 °F 14.7 °F 10.0 °F 58% 30.21 in 10.0 mi WSW 6.9 mph - N/A   Partly Cloudy
7:52 PM 21.0 °F 13.4 °F 10.9 °F 65% 30.22 in 10.0 mi West 5.8 mph - N/A   Partly Cloudy
8:52 PM 19.9 °F 11.1 °F 10.0 °F 65% 30.23 in 10.0 mi West 6.9 mph - N/A   Scattered Clouds
9:52 PM 19.9 °F 11.1 °F 10.0 °F 65% 30.22 in 10.0 mi West 6.9 mph - N/A   Partly Cloudy
10:52 PM 19.4 °F 12.8 °F 8.6 °F 63% 30.19 in 10.0 mi West 4.6 mph - N/A   Scattered Clouds
11:52 PM 17.1 °F - 8.1 °F 68% 30.22 in 10.0 mi Calm Calm - N/A   Scattered Clouds